Location: Newark
(42.0700°N, 88.0492°W)
Time: 18:08:54
(UTC+00:00)

ISS - Pass Details

Date: 01 October 2019
Orbit: 411 x 421 km, 51.6° (Epoch: 24 October)

Event Time Altitude Azimuth Distance (km) Brightness Sun altitude
Rises 23:53:22 0° 292° (WNW) 2,345 1.6 -4.1°
Reaches altitude 10° 23:56:03 10° 315° (NW) 1,482 -0.2 -4.6°
Maximum altitude 23:58:12 16° 355° (N) 1,173 -1.4 -5.0°
Drops below altitude 10° 00:00:25 10° 37° (NE) 1,497 -1.3 -5.4°
Enters shadow 00:02:18 - 55° (NE) 2,080 -0.7 -5.7°
